,,,PA_Meas_PMT16A,,PR_Meas_QMR101_102,,RH_Meas_QMH101,,SR_Meas_QMS101,,TA_Meas_QMH101,,GenWind,,GenWind,
date,time,status,PA,status,PR,status,RH,status,SR,status,TA,status,DirAvg,status,SpdAvg,
2011-02-23, 00:00:04,VALID,1002.65,VALID,0,INVALID,163.731,VALID,0,VALID,23.2152,VALID,255,VALID,0.694141,
2011-02-23, 00:01:04,VALID,1002.58,VALID,0,INVALID,163.754,VALID,0,VALID,23.1957,VALID,256,VALID,1.99453,
2011-02-23, 00:02:04,VALID,1002.57,VALID,0,INVALID,163.731,VALID,0,VALID,23.1763,VALID,290,VALID,1.5543,
2011-02-23, 00:03:04,VALID,1002.53,VALID,0,INVALID,163.739,VALID,0,VALID,23.1957,VALID,298,VALID,1.57266,
2011-02-23, 00:04:04,VALID,1002.55,VALID,0,INVALID,163.723,VALID,0.100563,VALID,23.2152,VALID,284,VALID,1.57344,
2011-02-23, 00:05:04,VALID,1002.52,VALID,0,INVALID,163.739,VALID,0,VALID,23.194,VALID,299,VALID,2.20742,
2011-02-23, 00:06:04,VALID,1002.52,VALID,0,INVALID,163.731,VALID,0,VALID,23.2541,VALID,293,VALID,1.57344,
2011-02-23, 00:07:04,VALID,1002.48,VALID,0,INVALID,163.739,VALID,0,VALID,23.2736,VALID,273,VALID,2.13594,
2011-02-23, 00:08:04,VALID,1002.49,VALID,0,INVALID,163.723,VALID,0,VALID,23.2931,VALID,307,VALID,1.9168,
2011-02-23, 00:09:04,VALID,1002.46,VALID,0,INVALID,163.716,VALID,0,VALID,23.3125,VALID,357,VALID,1.11758,
2011-02-23, 00:10:04,VALID,1002.46,VALID,0,INVALID,163.716,VALID,0,VALID,23.3514,VALID,286,VALID,1.11563,
2011-02-23, 00:11:04,VALID,1002.47,VALID,0,INVALID,163.746,VALID,0,VALID,23.3514,VALID,291,VALID,2.70469,
2011-02-23, 00:12:04,VALID,1002.41,VALID,0,INVALID,163.716,VALID,0,VALID,23.3709,VALID,291,VALID,2.36094,
2011-02-23, 00:13:04,VALID,1002.37,VALID,0,INVALID,163.739,VALID,0,VALID,23.4116,VALID,280,VALID,1.75312,
2011-02-23, 00:14:04,VALID,1002.33,VALID,0,INVALID,163.723,VALID,0,VALID,23.4487,VALID,288,VALID,1.37109,
2011-02-23, 00:15:04,VALID,1002.33,VALID,0,INVALID,163.708,VALID,0,VALID,23.447,VALID,289,VALID,1.28437,
2011-02-23, 00:16:04,VALID,1002.28,VALID,0,INVALID,163.731,VALID,0,VALID,23.4877,VALID,338,VALID,0.700391,
2011-02-23, 00:17:04,VALID,1002.28,VALID,0,INVALID,163.731,VALID,0,VALID,23.4877,VALID,321,VALID,0.725391,
2011-02-23, 00:18:04,VALID,1002.26,VALID,0,INVALID,163.708,VALID,0,VALID,23.5071,VALID,285,VALID,0.385938,
2011-02-23, 00:19:04,VALID,1002.22,VALID,0,INVALID,163.739,VALID,0.100563,VALID,23.4859,VALID,290,VALID,1.32852,
2011-02-23, 00:20:04,VALID,1002.19,VALID,0,INVALID,163.731,VALID,0,VALID,23.5071,VALID,300,VALID,1.33164,
2011-02-23, 00:21:04,VALID,1002.15,VALID,0,INVALID,163.739,VALID,0,VALID,23.5266,VALID,347,VALID,0.978125,
2011-02-23, 00:22:04,VALID,1002.1,VALID,0,INVALID,163.723,VALID,0,VALID,23.5266,VALID,296,VALID,0.846094,
2011-02-23, 00:23:04,VALID,1002.07,VALID,0,INVALID,163.716,VALID,0,VALID,23.5071,VALID,299,VALID,1.60703,
2011-02-23, 00:24:04,VALID,1002.06,VALID,0,INVALID,163.723,VALID,0,VALID,23.5071,VALID,250,VALID,0.601172,
2011-02-23, 00:25:04,VALID,1002.04,VALID,0,INVALID,163.708,VALID,0.100563,VALID,23.4859,VALID,290,VALID,2.09687,
2011-02-23, 00:26:04,VALID,1002.03,VALID,0,INVALID,163.716,VALID,0,VALID,23.5071,VALID,294,VALID,0.970703,
2011-02-23, 00:27:04,VALID,1002.03,VALID,0,INVALID,163.693,VALID,0,VALID,23.5284,VALID,330,VALID,1.40742,
2011-02-23, 00:28:04,VALID,1002,VALID,0,INVALID,163.731,VALID,0,VALID,23.5071,VALID,286,VALID,1.09492,
2011-02-23, 00:29:04,VALID,1002.01,VALID,0,INVALID,163.716,VALID,0,VALID,23.5089,VALID,286,VALID,1.8332,
2011-02-23, 00:30:04,VALID,1001.99,VALID,0,INVALID,163.723,VALID,0,VALID,23.5284,VALID,293,VALID,1.26914,
2011-02-23, 00:31:04,VALID,1001.98,VALID,0,INVALID,163.708,VALID,0,VALID,23.5266,VALID,286,VALID,1.36133,
2011-02-23, 00:32:04,VALID,1001.96,VALID,0,INVALID,163.716,VALID,0,VALID,23.5266,VALID,290,VALID,2.14063,
2011-02-23, 00:33:04,VALID,1001.94,VALID,0,INVALID,163.701,VALID,0,VALID,23.5478,VALID,294,VALID,1.28906,
2011-02-23, 00:34:04,VALID,1001.96,VALID,0,INVALID,163.723,VALID,0,VALID,23.5673,VALID,312,VALID,0.941797,
2011-02-23, 00:35:04,VALID,1001.96,VALID,0,INVALID,163.731,VALID,0,VALID,23.608,VALID,268,VALID,0.995313,
2011-02-23, 00:36:04,VALID,1001.94,VALID,0,INVALID,163.731,VALID,0,VALID,23.5673,VALID,291,VALID,1.64844,
2011-02-23, 00:37:04,VALID,1001.96,VALID,0,INVALID,163.723,VALID,0,VALID,23.5868,VALID,272,VALID,1.12539,
2011-02-23, 00:38:04,VALID,1001.9,VALID,0,INVALID,163.685,VALID,0,VALID,23.585,VALID,286,VALID,1.35234,
2011-02-23, 00:39:04,VALID,1001.89,VALID,0,INVALID,163.723,VALID,0,VALID,23.6257,VALID,283,VALID,1.14844,
2011-02-23, 00:40:04,VALID,1001.84,VALID,0,INVALID,163.708,VALID,0,VALID,23.6469,VALID,298,VALID,1.7418,
2011-02-23, 00:41:04,VALID,1001.86,VALID,0,INVALID,163.731,VALID,0.100563,VALID,23.6434,VALID,278,VALID,1.16172,
2011-02-23, 00:42:04,VALID,1001.83,VALID,0,INVALID,163.701,VALID,0,VALID,23.6239,VALID,285,VALID,0.734375,
2011-02-23, 00:43:04,VALID,1001.82,VALID,0,INVALID,163.716,VALID,0.100563,VALID,23.6628,VALID,279,VALID,0.898828,
2011-02-23, 00:44:04,VALID,1001.84,VALID,0,INVALID,163.693,VALID,0.100563,VALID,23.6416,VALID,290,VALID,1.03945,
2011-02-23, 00:45:04,VALID,1001.82,VALID,0,INVALID,163.716,VALID,0,VALID,23.6841,VALID,300,VALID,1.61914,
2011-02-23, 00:46:04,VALID,1001.8,VALID,0,INVALID,163.708,VALID,0.100563,VALID,23.661,VALID,288,VALID,1.74336,
2011-02-23, 00:47:04,VALID,1001.79,VALID,0,INVALID,163.693,VALID,0,VALID,23.7017,VALID,295,VALID,1.28594,
2011-02-23, 00:48:04,VALID,1001.75,VALID,0,INVALID,163.723,VALID,0,VALID,23.7,VALID,292,VALID,1.86133,
2011-02-23, 00:49:04,VALID,1001.77,VALID,0,INVALID,163.708,VALID,0,VALID,23.7194,VALID,298,VALID,1.40469,
2011-02-23, 00:50:04,VALID,1001.78,VALID,0,INVALID,163.708,VALID,0,VALID,23.7601,VALID,278,VALID,0.933594,
2011-02-23, 00:51:04,VALID,1001.79,VALID,0,INVALID,163.685,VALID,0.100563,VALID,23.7389,VALID,297,VALID,0.909766,
2011-02-23, 00:52:04,VALID,1001.83,VALID,0,INVALID,163.708,VALID,0,VALID,23.7814,VALID,240,VALID,0.797266,
2011-02-23, 00:53:04,VALID,1001.87,VALID,0,INVALID,163.716,VALID,0,VALID,23.7194,VALID,298,VALID,1.07852,
2011-02-23, 00:54:04,VALID,1001.88,VALID,0,INVALID,163.708,VALID,0.100563,VALID,23.6805,VALID,295,VALID,0.950781,
2011-02-23, 00:55:04,VALID,1001.89,VALID,0,INVALID,163.708,VALID,0,VALID,23.6823,VALID,297,VALID,0.44375,
2011-02-23, 00:56:04,VALID,1001.93,VALID,0,INVALID,163.716,VALID,0,VALID,23.6823,VALID,343,VALID,0.780469,
2011-02-23, 00:57:04,VALID,1001.95,VALID,0,INVALID,163.716,VALID,0.100563,VALID,23.6239,VALID,328,VALID,0.414844,
2011-02-23, 00:58:04,VALID,1001.97,VALID,0,INVALID,163.701,VALID,0,VALID,23.6044,VALID,289,VALID,1.13164,
2011-02-23, 00:59:04,VALID,1002.01,VALID,0,INVALID,163.731,VALID,0,VALID,23.585,VALID,287,VALID,2.51719,
2011-02-23, 01:00:04,VALID,1002,VALID,0,INVALID,163.716,VALID,0.100563,VALID,23.6044,VALID,292,VALID,1.31953,
2011-02-23, 01:01:04,VALID,1002.01,VALID,0,INVALID,163.685,VALID,0,VALID,23.585,VALID,281,VALID,2.16172,
2011-02-23, 01:02:04,VALID,1002,VALID,0,INVALID,163.723,VALID,0,VALID,23.6044,VALID,304,VALID,1.51445,
2011-02-23, 01:03:04,VALID,1002.02,VALID,0,INVALID,163.708,VALID,0,VALID,23.6026,VALID,292,VALID,0.589063,
2011-02-23, 01:04:04,VALID,1001.98,VALID,0,INVALID,163.693,VALID,0.100563,VALID,23.6239,VALID,273,VALID,0.892187,
2011-02-23, 01:05:04,VALID,1001.98,VALID,0,INVALID,163.716,VALID,0.100563,VALID,23.6434,VALID,284,VALID,1.64766,
2011-02-23, 01:06:04,VALID,1001.98,VALID,0,INVALID,163.678,VALID,0,VALID,23.6434,VALID,302,VALID,1.55234,
2011-02-23, 01:07:05,VALID,1001.99,VALID,0,INVALID,163.701,VALID,0,VALID,23.6823,VALID,300,VALID,1.92734,
2011-02-23, 01:08:05,VALID,1002,VALID,0,INVALID,163.708,VALID,0,VALID,23.7212,VALID,304,VALID,1.32344,
2011-02-23, 01:09:05,VALID,1001.95,VALID,0,INVALID,163.723,VALID,0,VALID,23.7796,VALID,46,VALID,0.674219,
2011-02-23, 01:10:05,VALID,1001.94,VALID,0,INVALID,163.708,VALID,0,VALID,23.7991,VALID,323,VALID,0.809766,
2011-02-23, 01:11:05,VALID,1001.91,VALID,0,INVALID,163.685,VALID,0,VALID,23.838,VALID,291,VALID,0.785547,
2011-02-23, 01:12:05,VALID,1001.89,VALID,0,INVALID,163.685,VALID,0,VALID,23.8362,VALID,287,VALID,1.55273,
2011-02-23, 01:13:05,VALID,1001.91,VALID,0,INVALID,163.693,VALID,0,VALID,23.8751,VALID,295,VALID,0.876172,
2011-02-23, 01:14:05,VALID,1001.88,VALID,0,INVALID,163.662,VALID,0,VALID,23.9159,VALID,281,VALID,1.22695,
2011-02-23, 01:15:05,VALID,1001.86,VALID,0,INVALID,163.678,VALID,0,VALID,23.9353,VALID,277,VALID,0.903125,
2011-02-23, 01:16:05,VALID,1001.88,VALID,0,INVALID,163.685,VALID,0,VALID,23.9724,VALID,278,VALID,1.30547,
2011-02-23, 01:17:05,VALID,1001.86,VALID,0,INVALID,163.701,VALID,0,VALID,23.953,VALID,293,VALID,1.56328,
2011-02-23, 01:18:05,VALID,1001.86,VALID,0,INVALID,163.693,VALID,0,VALID,23.9937,VALID,293,VALID,2.23945,
2011-02-23, 01:19:05,VALID,1001.91,VALID,0,INVALID,163.716,VALID,0.100563,VALID,24.0326,VALID,307,VALID,0.836328,
2011-02-23, 01:20:05,VALID,1001.93,VALID,0,INVALID,163.701,VALID,0,VALID,24.0326,VALID,334,VALID,0.71875,
2011-02-23, 01:21:05,VALID,1001.98,VALID,0,INVALID,163.662,VALID,0,VALID,24.0521,VALID,296,VALID,0.340234,
2011-02-23, 01:22:05,VALID,1002.03,VALID,0.5,INVALID,163.685,VALID,0.100563,VALID,24.0521,VALID,292,VALID,0.778516,
2011-02-23, 01:23:05,VALID,1002.07,VALID,0,INVALID,163.701,VALID,0,VALID,24.0521,VALID,2,VALID,1.08945,
2011-02-23, 01:24:05,VALID,1002.11,VALID,0,INVALID,163.662,VALID,0.100563,VALID,24.0326,VALID,318,VALID,0.352734,
2011-02-23, 01:25:05,VALID,1002.12,VALID,0,INVALID,163.67,VALID,0,VALID,23.9919,VALID,271,VALID,0.450391,
2011-02-23, 01:26:05,VALID,1002.16,VALID,0,INVALID,163.708,VALID,0,VALID,23.9742,VALID,276,VALID,0.312891,
2011-02-23, 01:27:05,VALID,1002.16,VALID,0,INVALID,163.67,VALID,0,VALID,23.9761,VALID,327,VALID,0.497266,
2011-02-23, 01:28:05,VALID,1002.16,VALID,0,INVALID,163.693,VALID,0,VALID,23.9371,VALID,336,VALID,1.16602,
2011-02-23, 01:29:05,VALID,1002.16,VALID,0,INVALID,163.693,VALID,0,VALID,23.9159,VALID,344,VALID,0.415625,
2011-02-23, 01:30:05,VALID,1002.16,VALID,0,INVALID,163.678,VALID,0,VALID,23.9177,VALID,298,VALID,0.636719,
2011-02-23, 01:31:05,VALID,1002.12,VALID,0,INVALID,163.678,VALID,0,VALID,23.9371,VALID,311,VALID,0.548047,
2011-02-23, 01:32:05,VALID,1002.07,VALID,0,INVALID,163.693,VALID,0,VALID,23.9371,VALID,307,VALID,1.01328,
2011-02-23, 01:33:05,VALID,1002.01,VALID,0,INVALID,163.701,VALID,0,VALID,23.9761,VALID,257,VALID,0.490625,
2011-02-23, 01:34:05,VALID,1001.98,VALID,0,INVALID,163.655,VALID,0,VALID,23.9761,VALID,331,VALID,0.471875,
2011-02-23, 01:35:05,VALID,1001.95,VALID,0,INVALID,163.678,VALID,0,VALID,23.9761,VALID,300,VALID,0.448438,
2011-02-23, 01:36:05,VALID,1001.89,VALID,0,INVALID,163.647,VALID,0,VALID,23.9742,VALID,290,VALID,0.580078,
2011-02-23, 01:37:05,VALID,1001.84,VALID,0,INVALID,163.685,VALID,0,VALID,23.9955,VALID,338,VALID,0.595312,
2011-02-23, 01:38:05,VALID,1001.81,VALID,0,INVALID,163.67,VALID,0,VALID,24.015,VALID,291,VALID,0.394141,
2011-02-23, 01:39:05,VALID,1001.76,VALID,0,INVALID,163.662,VALID,0,VALID,24.0363,VALID,295,VALID,0.727734,
2011-02-23, 01:40:05,VALID,1001.71,VALID,0,INVALID,163.678,VALID,0,VALID,24.0345,VALID,343,VALID,0.806641,
2011-02-23, 01:41:05,VALID,1001.7,VALID,0,INVALID,163.678,VALID,0,VALID,24.0697,VALID,298,VALID,0.670313,
2011-02-23, 01:42:05,VALID,1001.64,VALID,0,INVALID,163.678,VALID,0,VALID,24.091,VALID,307,VALID,0.529688,
2011-02-23, 01:43:05,VALID,1001.6,VALID,0,INVALID,163.662,VALID,0,VALID,24.1318,VALID,291,VALID,0.403125,
2011-02-23, 01:44:05,VALID,1001.56,VALID,0,INVALID,163.662,VALID,0,VALID,24.13,VALID,285,VALID,0.969141,
2011-02-23, 01:45:05,VALID,1001.54,VALID,0,INVALID,163.678,VALID,0,VALID,24.1476,VALID,299,VALID,1.61094,
2011-02-23, 01:46:05,VALID,1001.53,VALID,0,INVALID,163.662,VALID,0,VALID,24.1689,VALID,305,VALID,0.462109,
2011-02-23, 01:47:05,VALID,1001.52,VALID,0,INVALID,163.678,VALID,0,VALID,24.1884,VALID,302,VALID,0.457031,
2011-02-23, 01:48:05,VALID,1001.52,VALID,0,INVALID,163.67,VALID,0,VALID,24.1884,VALID,1,VALID,0.608984,
2011-02-23, 01:49:05,VALID,1001.52,VALID,0,INVALID,163.67,VALID,0,VALID,24.1884,VALID,353,VALID,0.691406,
2011-02-23, 01:50:05,VALID,1001.53,VALID,0,INVALID,163.678,VALID,0,VALID,24.1884,VALID,344,VALID,0.396094,
2011-02-23, 01:51:05,VALID,1001.54,VALID,0,INVALID,163.639,VALID,0,VALID,24.1884,VALID,303,VALID,0.357812,
2011-02-23, 01:52:05,VALID,1001.51,VALID,0,INVALID,163.67,VALID,0,VALID,24.1884,VALID,315,VALID,0.35,
2011-02-23, 01:53:05,VALID,1001.5,VALID,0,INVALID,163.67,VALID,0,VALID,24.2078,VALID,348,VALID,0.758203,
2011-02-23, 01:54:05,VALID,1001.48,VALID,0,INVALID,163.67,VALID,0,VALID,24.2078,VALID,325,VALID,0.719922,
2011-02-23, 01:55:05,VALID,1001.49,VALID,0,INVALID,163.678,VALID,0,VALID,24.2078,VALID,350,VALID,0.907031,
2011-02-23, 01:56:05,VALID,1001.46,VALID,0,INVALID,163.655,VALID,0,VALID,24.2078,VALID,334,VALID,0.31875,
2011-02-23, 01:57:05,VALID,1001.47,VALID,0,INVALID,163.67,VALID,0,VALID,24.2078,VALID,344,VALID,0.89375,
2011-02-23, 01:58:05,VALID,1001.46,VALID,0,INVALID,163.685,VALID,0,VALID,24.2291,VALID,256,VALID,0.313281,
2011-02-23, 01:59:05,VALID,1001.45,VALID,0,INVALID,163.678,VALID,0,VALID,24.2078,VALID,347,VALID,0.665234,
2011-02-23, 02:00:05,VALID,1001.39,VALID,0,INVALID,163.662,VALID,0,VALID,24.2255,VALID,353,VALID,1.34336,
2011-02-23, 02:01:05,VALID,1001.38,VALID,0,INVALID,163.647,VALID,0,VALID,24.2468,VALID,331,VALID,1.03203,
2011-02-23, 02:02:05,VALID,1001.35,VALID,0,INVALID,163.67,VALID,0,VALID,24.2662,VALID,322,VALID,0.615625,
2011-02-23, 02:03:05,VALID,1001.36,VALID,0,INVALID,163.655,VALID,0,VALID,24.307,VALID,318,VALID,0.1625,
2011-02-23, 02:04:05,VALID,1001.32,VALID,0,INVALID,163.655,VALID,0,VALID,24.2662,VALID,336,VALID,0.346875,
2011-02-23, 02:05:05,VALID,1001.31,VALID,0,INVALID,163.655,VALID,0,VALID,24.2857,VALID,346,VALID,0.489453,
2011-02-23, 02:06:05,VALID,1001.34,VALID,0,INVALID,163.678,VALID,0,VALID,24.3052,VALID,263,VALID,0.637109,
2011-02-23, 02:07:05,VALID,1001.3,VALID,0,INVALID,163.639,VALID,0,VALID,24.3052,VALID,354,VALID,0.665625,
2011-02-23, 02:08:05,VALID,1001.3,VALID,0,INVALID,163.708,VALID,0,VALID,24.3246,VALID,309,VALID,0.69375,
2011-02-23, 02:09:05,VALID,1001.28,VALID,0,INVALID,163.708,VALID,0,VALID,24.3052,VALID,258,VALID,0.466016,
2011-02-23, 02:10:05,VALID,1001.29,VALID,0,INVALID,163.647,VALID,0,VALID,24.3441,VALID,200,VALID,0.251563,
2011-02-23, 02:11:05,VALID,1001.33,VALID,0,INVALID,163.662,VALID,0,VALID,24.3654,VALID,188,VALID,0.414453,
2011-02-23, 02:12:05,VALID,1001.3,VALID,0,INVALID,163.655,VALID,0,VALID,24.3636,VALID,191,VALID,0.365625,
2011-02-23, 02:13:05,VALID,1001.29,VALID,0,INVALID,163.701,VALID,0,VALID,24.383,VALID,334,VALID,0.737891,
2011-02-23, 02:14:05,VALID,1001.32,VALID,0,INVALID,163.655,VALID,0,VALID,24.3812,VALID,278,VALID,1.4082,
2011-02-23, 02:15:05,VALID,1001.36,VALID,0,INVALID,163.647,VALID,0,VALID,24.422,VALID,277,VALID,0.639063,
2011-02-23, 02:16:05,VALID,1001.33,VALID,0,INVALID,163.647,VALID,0,VALID,24.4396,VALID,277,VALID,1.15313,
2011-02-23, 02:17:05,VALID,1001.35,VALID,0,INVALID,163.639,VALID,0,VALID,24.4609,VALID,302,VALID,0.182031,
2011-02-23, 02:18:05,VALID,1001.33,VALID,0,INVALID,163.655,VALID,0,VALID,24.4998,VALID,331,VALID,0.755469,
2011-02-23, 02:19:05,VALID,1001.3,VALID,0,INVALID,163.67,VALID,0,VALID,24.4998,VALID,346,VALID,1.2832,
2011-02-23, 02:20:05,VALID,1001.26,VALID,0,INVALID,163.662,VALID,0,VALID,24.5212,VALID,321,VALID,0.369922,
2011-02-23, 02:21:05,VALID,1001.28,VALID,0,INVALID,163.647,VALID,0,VALID,24.5193,VALID,313,VALID,1.18398,
2011-02-23, 02:22:05,VALID,1001.31,VALID,0,INVALID,163.662,VALID,0,VALID,24.5388,VALID,344,VALID,0.653516,
2011-02-23, 02:23:05,VALID,1001.3,VALID,0,INVALID,163.67,VALID,0,VALID,24.5582,VALID,13,VALID,0.739062,
2011-02-23, 02:24:05,VALID,1001.33,VALID,0,INVALID,163.639,VALID,0,VALID,24.599,VALID,4,VALID,0.320313,
2011-02-23, 02:25:05,VALID,1001.32,VALID,0,INVALID,163.632,VALID,0,VALID,24.5777,VALID,323,VALID,0.526172,
2011-02-23, 02:26:05,VALID,1001.34,VALID,0,INVALID,163.647,VALID,0,VALID,24.5777,VALID,238,VALID,0.938281,
2011-02-23, 02:27:05,VALID,1001.33,VALID,0,INVALID,163.639,VALID,0,VALID,24.5972,VALID,315,VALID,1.17773,
2011-02-23, 02:28:05,VALID,1001.33,VALID,0,INVALID,163.632,VALID,0,VALID,24.6166,VALID,300,VALID,0.353125,
2011-02-23, 02:29:05,VALID,1001.31,VALID,0,INVALID,163.632,VALID,0,VALID,24.6361,VALID,338,VALID,0.80625,
2011-02-23, 02:30:05,VALID,1001.29,VALID,0,INVALID,163.647,VALID,0,VALID,24.6342,VALID,331,VALID,0.454297,
2011-02-23, 02:31:05,VALID,1001.27,VALID,0,INVALID,163.662,VALID,0,VALID,24.6556,VALID,317,VALID,0.687109,
2011-02-23, 02:32:05,VALID,1001.26,VALID,0,INVALID,163.632,VALID,0,VALID,24.6769,VALID,306,VALID,0.603516,
2011-02-23, 02:33:05,VALID,1001.2,VALID,0,INVALID,163.647,VALID,0,VALID,24.675,VALID,329,VALID,0.369531,
2011-02-23, 02:34:05,VALID,1001.14,VALID,0,INVALID,163.632,VALID,0,VALID,24.6945,VALID,291,VALID,0.469141,
2011-02-23, 02:35:05,VALID,1001.08,VALID,0,INVALID,163.655,VALID,0,VALID,24.675,VALID,339,VALID,0.993359,
2011-02-23, 02:36:05,VALID,1001.04,VALID,0,INVALID,163.632,VALID,0,VALID,24.6945,VALID,335,VALID,0.369922,
2011-02-23, 02:37:05,VALID,1000.97,VALID,0,INVALID,163.639,VALID,0,VALID,24.714,VALID,291,VALID,0.269922,
2011-02-23, 02:38:05,VALID,1000.98,VALID,0,INVALID,163.617,VALID,0,VALID,24.7353,VALID,309,VALID,0.121875,
2011-02-23, 02:39:05,VALID,1000.92,VALID,0,INVALID,163.647,VALID,0,VALID,24.714,VALID,352,VALID,0.582422,
2011-02-23, 02:40:05,VALID,1000.91,VALID,0,INVALID,163.662,VALID,0,VALID,24.7353,VALID,271,VALID,0.482812,
2011-02-23, 02:41:05,VALID,1000.84,VALID,0,INVALID,163.624,VALID,0,VALID,24.7335,VALID,341,VALID,0.300781,
2011-02-23, 02:42:05,VALID,1000.83,VALID,0,INVALID,163.617,VALID,0,VALID,24.7743,VALID,345,VALID,0.530469,
2011-02-23, 02:43:05,VALID,1000.84,VALID,0,INVALID,163.609,VALID,0,VALID,24.7529,VALID,332,VALID,0.333203,
2011-02-23, 02:44:05,VALID,1000.87,VALID,0,INVALID,163.624,VALID,0,VALID,24.7724,VALID,286,VALID,0.248828,
2011-02-23, 02:45:05,VALID,1000.85,VALID,0,INVALID,163.647,VALID,0,VALID,24.7724,VALID,297,VALID,0.359375,
2011-02-23, 02:46:05,VALID,1000.87,VALID,0,INVALID,163.647,VALID,0,VALID,24.8132,VALID,359,VALID,0.880469,
2011-02-23, 02:47:05,VALID,1000.86,VALID,0,INVALID,163.632,VALID,0,VALID,24.8132,VALID,319,VALID,0.453516,
2011-02-23, 02:48:05,VALID,1000.84,VALID,0,INVALID,163.647,VALID,0,VALID,24.8113,VALID,288,VALID,0.523828,
2011-02-23, 02:49:05,VALID,1000.88,VALID,0,INVALID,163.601,VALID,0,VALID,24.7919,VALID,306,VALID,0.375781,
2011-02-23, 02:50:05,VALID,1000.87,VALID,0,INVALID,163.601,VALID,0,VALID,24.8327,VALID,309,VALID,0.266797,
2011-02-23, 02:51:05,VALID,1000.88,VALID,0,INVALID,163.624,VALID,0,VALID,24.8522,VALID,302,VALID,0.486328,
2011-02-23, 02:52:05,VALID,1000.88,VALID,0,INVALID,163.624,VALID,0,VALID,24.8503,VALID,267,VALID,0.469922,
2011-02-23, 02:53:05,VALID,1000.91,VALID,0,INVALID,163.624,VALID,0,VALID,24.8503,VALID,272,VALID,0.869922,
2011-02-23, 02:54:05,VALID,1000.88,VALID,0,INVALID,163.639,VALID,0,VALID,24.9106,VALID,280,VALID,1.17266,
2011-02-23, 02:55:05,VALID,1000.86,VALID,0,INVALID,163.624,VALID,0,VALID,24.9087,VALID,280,VALID,0.854688,
2011-02-23, 02:56:05,VALID,1000.87,VALID,0,INVALID,163.632,VALID,0,VALID,24.9476,VALID,272,VALID,0.583594,
2011-02-23, 02:57:05,VALID,1000.88,VALID,0,INVALID,163.601,VALID,0,VALID,25.006,VALID,284,VALID,1.20234,
2011-02-23, 02:58:05,VALID,1000.85,VALID,0,INVALID,163.594,VALID,0,VALID,25.0644,VALID,292,VALID,0.764453,
2011-02-23, 02:59:05,VALID,1000.86,VALID,0,INVALID,163.624,VALID,0,VALID,25.1248,VALID,295,VALID,0.6625,
2011-02-23, 03:00:05,VALID,1000.84,VALID,0,INVALID,163.594,VALID,0,VALID,25.1832,VALID,292,VALID,0.539453,
2011-02-23, 03:01:05,VALID,1000.85,VALID,0,INVALID,163.586,VALID,0,VALID,25.1813,VALID,297,VALID,0.965234,
2011-02-23, 03:02:05,VALID,1000.88,VALID,0,INVALID,163.617,VALID,0,VALID,25.2221,VALID,297,VALID,1.025,
2011-02-23, 03:03:05,VALID,1000.89,VALID,0,INVALID,163.594,VALID,0,VALID,25.2397,VALID,289,VALID,0.796094,
2011-02-23, 03:04:05,VALID,1000.92,VALID,0,INVALID,163.571,VALID,0,VALID,25.2397,VALID,349,VALID,0.361328,
2011-02-23, 03:05:05,VALID,1000.94,VALID,0,INVALID,163.586,VALID,0,VALID,25.2592,VALID,326,VALID,0.0550781,
2011-02-23, 03:06:05,VALID,1000.99,VALID,0,INVALID,163.586,VALID,0,VALID,25.2611,VALID,265,VALID,0.300781,
2011-02-23, 03:07:05,VALID,1000.99,VALID,0,INVALID,163.601,VALID,0,VALID,25.2221,VALID,271,VALID,0.746094,
2011-02-23, 03:08:05,VALID,1001.05,VALID,0,INVALID,163.578,VALID,0,VALID,25.2007,VALID,247,VALID,0.390234,
2011-02-23, 03:09:05,VALID,1001.05,VALID,0,INVALID,163.624,VALID,0,VALID,25.2007,VALID,295,VALID,1.325,
2011-02-23, 03:10:05,VALID,1001.07,VALID,0,INVALID,163.601,VALID,0,VALID,25.2202,VALID,290,VALID,0.51875,
2011-02-23, 03:11:05,VALID,1001.14,VALID,0,INVALID,163.609,VALID,0,VALID,25.2416,VALID,305,VALID,0.852734,
2011-02-23, 03:12:05,VALID,1001.11,VALID,0,INVALID,163.556,VALID,0,VALID,25.2202,VALID,290,VALID,0.727734,
2011-02-23, 03:13:05,VALID,1001.12,VALID,0,INVALID,163.594,VALID,0,VALID,25.2416,VALID,279,VALID,0.453516,
2011-02-23, 03:14:05,VALID,1001.16,VALID,0,INVALID,163.617,VALID,0,VALID,25.2221,VALID,291,VALID,1.64219,
2011-02-23, 03:15:05,VALID,1001.16,VALID,0,INVALID,163.601,VALID,0,VALID,25.2007,VALID,293,VALID,0.460156,
2011-02-23, 03:16:05,VALID,1001.22,VALID,0,INVALID,163.594,VALID,0,VALID,25.2221,VALID,306,VALID,0.403516,
2011-02-23, 03:17:05,VALID,1001.23,VALID,0,INVALID,163.601,VALID,0,VALID,25.1813,VALID,287,VALID,0.757422,
2011-02-23, 03:18:05,VALID,1001.26,VALID,0,INVALID,163.609,VALID,0,VALID,25.1813,VALID,298,VALID,0.994531,
2011-02-23, 03:19:05,VALID,1001.27,VALID,0,INVALID,163.609,VALID,0,VALID,25.2221,VALID,310,VALID,0.600391,
2011-02-23, 03:20:05,VALID,1001.31,VALID,0,INVALID,163.601,VALID,0,VALID,25.2202,VALID,270,VALID,0.580859,
2011-02-23, 03:21:05,VALID,1001.34,VALID,0,INVALID,163.601,VALID,0,VALID,25.2416,VALID,20,VALID,0.602734,
2011-02-23, 03:22:05,VALID,1001.39,VALID,0,INVALID,163.594,VALID,0,VALID,25.2611,VALID,263,VALID,0.128906,
2011-02-23, 03:23:05,VALID,1001.38,VALID,0,INVALID,163.617,VALID,0,VALID,25.2611,VALID,306,VALID,1.24336,
2011-02-23, 03:24:05,VALID,1001.38,VALID,0,INVALID,163.594,VALID,0,VALID,25.2981,VALID,291,VALID,1.41797,
2011-02-23, 03:25:05,VALID,1001.41,VALID,0,INVALID,163.617,VALID,0,VALID,25.2981,VALID,360,VALID,0.455859,
2011-02-23, 03:26:05,VALID,1001.36,VALID,0,INVALID,163.594,VALID,0,VALID,25.3584,VALID,262,VALID,0.265625,
2011-02-23, 03:27:05,VALID,1001.39,VALID,0,INVALID,163.571,VALID,0,VALID,25.3176,VALID,291,VALID,0.932813,
2011-02-23, 03:28:05,VALID,1001.4,VALID,0,INVALID,163.586,VALID,0,VALID,25.3176,VALID,253,VALID,0.534766,
2011-02-23, 03:29:05,VALID,1001.41,VALID,0,INVALID,163.594,VALID,0,VALID,25.3176,VALID,318,VALID,0.414844,
2011-02-23, 03:30:05,VALID,1001.38,VALID,0,INVALID,163.609,VALID,0,VALID,25.337,VALID,292,VALID,1.43125,
2011-02-23, 03:31:05,VALID,1001.4,VALID,0,INVALID,163.601,VALID,0,VALID,25.3565,VALID,314,VALID,0.646094,
2011-02-23, 03:32:05,VALID,1001.36,VALID,0,INVALID,163.578,VALID,0,VALID,25.376,VALID,293,VALID,1.39063,
2011-02-23, 03:33:05,VALID,1001.39,VALID,0,INVALID,163.609,VALID,0,VALID,25.376,VALID,325,VALID,0.330469,
2011-02-23, 03:34:05,VALID,1001.4,VALID,0,INVALID,163.594,VALID,0,VALID,25.3974,VALID,327,VALID,1.14297,
2011-02-23, 03:35:05,VALID,1001.37,VALID,0,INVALID,163.601,VALID,0,VALID,25.3565,VALID,4,VALID,1.26719,
2011-02-23, 03:36:05,VALID,1001.39,VALID,0,INVALID,163.578,VALID,0,VALID,25.376,VALID,2,VALID,0.560547,
2011-02-23, 03:37:05,VALID,1001.38,VALID,0,INVALID,163.571,VALID,0,VALID,25.3565,VALID,342,VALID,0.607813,
2011-02-23, 03:38:05,VALID,1001.33,VALID,0,INVALID,163.571,VALID,0,VALID,25.3176,VALID,345,VALID,1.70469,
2011-02-23, 03:39:05,VALID,1001.32,VALID,0,INVALID,163.594,VALID,0,VALID,25.3,VALID,360,VALID,1.44102,
2011-02-23, 03:40:05,VALID,1001.34,VALID,0,INVALID,163.571,VALID,0,VALID,25.2592,VALID,3,VALID,0.424609,